Weather History for New York, NY

Change the Weather History Date:

Tuesday, January 1, 2013

  Actual Average Record
Temperature  
Mean Temperature 34 °F 34 °F  
Max Temperature 41 °F 40 °F 60 °F (1966)
Min Temperature 27 °F 28 °F 11 °F (1963)
Degree Days  
Heating Degree Days 31 31  
Month to date heating degree days 31 31  
Since 1 July heating degree days 1483 1637  
Cooling Degree Days 0 0  
Month to date cooling degree days 0 0  
Year to date cooling degree days 0 0  
Moisture  
Dew Point 22 °F    
Average Humidity 51    
Maximum Humidity 59    
Minimum Humidity 43    
Precipitation  
Precipitation T in 0.10 in 1.33 in (2007)
Month to date precipitation T 0.10  
Year to date precipitation T 0.10  
Snow  
Snow 0.00 in 0.20 in 5.70 in (1971)
Month to date snowfall 0.0 0.2  
Since 1 July snowfall 2.0 5.7  
Snow Depth 0.00 in    
Sea Level Pressure  
Sea Level Pressure 29.90 in    
Wind  
Wind Speed 15 mph (WNW)    
Max Wind Speed 24 mph    
Max Gust Speed 35 mph    
Visibility 10 miles    
Events Rain    
T = Trace of Precipitation, MM = Missing Value Source: NWS Daily Summary

Daily Weather History Graph

Daily Weather History Graph

Search for Another Location

Airport:

Trip Planner

Search our weather history database for the weather conditions in past years. The results will help you decide how hot, cold, wet, or windy it might be!

Date:

Astronomy

Jan. 01, 2013 Rise Set
Actual Time 7:19 AM EST 4:38 PM EST
Civil Twilight 6:48 AM EST 5:09 PM EST
Nautical Twilight 6:14 AM EST 5:44 PM EST
Astronomical Twilight 5:41 AM EST 6:17 PM EST
Moon 9:08 PM EST (1/1) 9:29 AM EST (1/1)
Length of Visible Light 10h 20m
Length of Day
9h 19m
Waning Gibbous, 83% of the Moon is Illuminated
Jan 1
Waning Gibbous
Jan 4
Last Quarter
Jan 11
New
Jan 18
First Quarter
Jan 26
Full

Hourly Weather History & Observations

Time (EST) Temp. Windchill Dew Point Humidity Pressure Visibility Wind Dir Wind Speed Gust Speed Precip Events Conditions
12:51 AM 41.0 °F 33.1 °F 24.1 °F 51% 29.87 in 10.0 mi WSW 15.0 mph 21.9 mph N/A   Overcast
1:51 AM 39.9 °F 32.1 °F 26.1 °F 58% 29.88 in 10.0 mi West 13.8 mph 23.0 mph N/A   Overcast
2:51 AM 41.0 °F 32.5 °F 26.1 °F 55% 29.87 in 10.0 mi West 17.3 mph 25.3 mph N/A   Overcast
3:51 AM 41.0 °F 32.8 °F 26.1 °F 55% 29.89 in 10.0 mi West 16.1 mph 24.2 mph N/A   Overcast
4:51 AM 41.0 °F 32.5 °F 26.1 °F 55% 29.88 in 10.0 mi West 17.3 mph 25.3 mph N/A   Overcast
5:51 AM 39.9 °F 31.8 °F 25.0 °F 55% 29.87 in 10.0 mi WSW 15.0 mph 21.9 mph N/A   Mostly Cloudy
6:51 AM 39.9 °F 31.4 °F 25.0 °F 55% 29.88 in 10.0 mi West 16.1 mph 23.0 mph N/A   Mostly Cloudy
7:51 AM 39.9 °F 31.8 °F 26.1 °F 58% 29.88 in 10.0 mi WSW 15.0 mph 25.3 mph N/A   Mostly Cloudy
8:51 AM 39.9 °F 31.8 °F 26.1 °F 58% 29.88 in 10.0 mi WSW 15.0 mph 28.8 mph N/A   Overcast
9:51 AM 39.9 °F 30.8 °F 26.1 °F 58% 29.89 in 10.0 mi West 18.4 mph 24.2 mph N/A   Overcast
10:51 AM 39.9 °F 32.5 °F 26.1 °F 58% 29.89 in 10.0 mi West 12.7 mph 20.7 mph N/A   Overcast
11:51 AM 39.9 °F 31.4 °F 26.1 °F 58% 29.86 in 10.0 mi WNW 16.1 mph - N/A   Overcast
12:18 PM 37.4 °F 29.8 °F 28.4 °F 70% 29.86 in 10.0 mi NNW 11.5 mph - 0.00 in Rain Light Rain
12:51 PM 37.9 °F 28.5 °F 26.1 °F 62% 29.86 in 9.0 mi NW 17.3 mph 24.2 mph 0.00 in Rain Light Rain
1:51 PM 37.9 °F 28.9 °F 25.0 °F 60% 29.85 in 9.0 mi NW 16.1 mph 20.7 mph 0.00 in   Overcast
2:51 PM 39.0 °F 32.8 °F 24.1 °F 55% 29.85 in 10.0 mi WNW 9.2 mph - N/A   Overcast
3:51 PM 39.0 °F 31.4 °F 21.9 °F 50% 29.87 in 10.0 mi NW 12.7 mph 21.9 mph N/A   Mostly Cloudy
4:51 PM 37.9 °F 30.5 °F 21.0 °F 51% 29.88 in 10.0 mi NNW 11.5 mph - N/A   Mostly Cloudy
5:51 PM 36.0 °F 25.6 °F 17.1 °F 46% 29.92 in 10.0 mi WNW 18.4 mph 27.6 mph N/A   Mostly Cloudy
6:51 PM 34.0 °F 24.2 °F 16.0 °F 48% 29.94 in 10.0 mi NW 15.0 mph 24.2 mph N/A   Mostly Cloudy
7:51 PM 33.1 °F 23.4 °F 14.0 °F 46% 29.95 in 10.0 mi NNW 13.8 mph 25.3 mph N/A   Mostly Cloudy
8:51 PM 32.0 °F 22.5 °F 15.1 °F 50% 29.97 in 10.0 mi NNW 12.7 mph - N/A   Mostly Cloudy
9:51 PM 30.0 °F 18.7 °F 14.0 °F 51% 29.99 in 10.0 mi NW 16.1 mph 26.5 mph N/A   Mostly Cloudy
10:51 PM 28.9 °F 14.8 °F 12.0 °F 49% 30.01 in 10.0 mi NW 24.2 mph 28.8 mph N/A   Mostly Cloudy
11:51 PM 28.0 °F 16.5 °F 12.0 °F 51% 30.01 in 10.0 mi NW 15.0 mph - N/A   Mostly Cloudy